Tracking 29042 objects as of 20-Jun-2024
HD Live streaming from Space Station
objects crossing your sky now

ICEYE-X16

Track ICEYE-X16 now!
10-day predictions
ICEYE-X16 is classified as:


NORAD ID: 51008
Int'l Code: 2022-002AA
Perigee: 407.8 km
Apogee: 409.0 km
Inclination: 97.4 °
Period: 92.6 minutes
Semi major axis: 6779 km
RCS: Unknown
Launch date: January 13, 2022
Source: (FIN)
Launch site: AIR FORCE EASTERN TEST RANGE (AFETR)

Uplink (MHz):
Downlink (MHz): 401.250
Beacon (MHz):
Mode: FM
Call sign:
Status: Inactive

Your satellite tracking list
Your tracking list is empty




NASA's NSSDC Master Catalog

Two Line Element Set (TLE):
1 51008U 22002AA  24172.51819582  .00074356  00000-0  10897-2 0  9997
2 51008  97.3893 246.4638 0000888 289.5680  70.5478 15.55308522135398
Source of the keplerian elements: AFSPC